Preview of NWS' New Version of Forecast
This preview is not operational and should not be used for support decisions.
Latest weather observations around

Seattle, Seattle-Tacoma International Airport (KSEA)

Using English Units (Switch to International System of Units)
Date/ Time (PDT) Wind (mph) Vis. (mi) Weather Sky Cond. Temp (°F) Rel. Humidity Wind Chill (°F) Heat Index (°F) Pressure Precip. (in)
Air Dwpt 6 hour Altimeter (inHg) Sea level (inHg) 1 hr 3 hr 6 hr
Max Min
Jun 21 15:53 SW 10 10 Cloudy OVC031 68 53     59%     30.14 30.15      
Jun 21 15:27 SW 11 10 Cloudy OVC030 67 52     59%     30.15        
Jun 21 14:53 WSW 9 10 Cloudy OVC027 66 53     63%     30.15 30.17      
Jun 21 13:53 WSW 10 10 Cloudy OVC026 65 52     63%     30.15 30.17      
Jun 21 12:53 SW 11 10 Cloudy BKN023 OVC035 65 52     63%     30.15 30.16      
Jun 21 11:53 S 9 10 Cloudy BKN024 OVC035 66 52     61%     30.14 30.16      
Jun 21 10:53 SSW 9 10 Cloudy FEW015 OVC020 63 52     67%     30.14 30.16      
Jun 21 09:53 SSW 13 10 Cloudy FEW015 OVC020 61 52     72%     30.13 30.14      
Jun 21 08:53 SSW 8 10 Cloudy SCT015 OVC024 60 53     78%     30.12 30.13      
Jun 21 08:43 S 9 10 Cloudy SCT013 OVC019 59 53     81%     30.12        
Jun 21 07:53 SSW 8 10 Cloudy SCT009 OVC011 59 53     81%     30.11 30.12      
Jun 21 07:44 SSW 7 10 Cloudy SCT009 OVC011 59 53     81%     30.11        
Jun 21 07:17 SSW 9 10 Cloudy BKN009 OVC014 58 54     87%     30.1        
Jun 21 07:10 SSW 8 10 Cloudy FEW008 OVC013 59 54     83%     30.1        
Jun 21 06:53 SSW 8 10 Cloudy OVC011 59 54     83%     30.1 30.11      
Jun 21 05:53 SSW 8 10 Cloudy FEW010 OVC014 59 53     81%     30.09 30.09      
Jun 21 04:53 SW 8 10 Cloudy OVC013 59 53     81%     30.07 30.08      
Jun 21 04:24 SW 9 10 Cloudy OVC011 59 53     81%     30.06        
Jun 21 03:53 SW 10 10 Cloudy OVC009 59 54     83%     30.06 30.07      
Jun 21 02:53 SSW 9 10 Cloudy OVC009 60 54     80%     30.05 30.06      
Jun 21 01:53 SSW 10 10 Cloudy OVC008 60 54     80%     30.03 30.04      
Jun 21 01:29 SSW 11 10 Cloudy OVC009 60 54     80%     30.03        
Jun 21 00:53 SSW 13 10 Mostly Cloudy BKN010 59 54     83%     30.02 30.03      
Jun 21 00:07 SSW 14 10 Mostly Cloudy BKN009 59 55     87%     30        
Jun 20 23:53 SSW 13 10 Mostly Cloudy FEW070 BKN250 60 54     80%     29.99 30      
Jun 20 22:53 SSW 11 10 Mostly Cloudy FEW070 BKN250 63 56     78%     29.96 29.97      
Jun 20 21:53 SW 10 10 Partly Cloudy FEW070 SCT250 71 56     59%   71 29.93 29.94      
Jun 20 20:53 WNW 7 10 Partly Cloudy FEW070 SCT250 76 52     43%   75 29.91 29.92      
Jun 20 19:53 NW 7 10 Mostly Cloudy FEW060 FEW160 BKN250 80 55     42%   80 29.9 29.91      
Jun 20 18:53 WNW 7 10 Mostly Cloudy FEW060 SCT160 BKN250 83 56     40%   82 29.9 29.91      
Jun 20 17:53 W 8 10 Mostly Cloudy FEW060 SCT160 BKN250 86 60     42%   86 29.9 29.91      
Jun 20 16:53 WNW 5 10 Mostly Cloudy FEW060 BKN160 BKN250 86 58     39%   85 29.9 29.91      
Jun 20 15:53 WNW 7 10 Mostly Cloudy FEW060 BKN170 BKN250 83 58     43%   83 29.91 29.92      
Jun 20 14:53 WNW 3 10 Mostly Cloudy FEW050 BKN170 BKN250 85 55     36%   84 29.92 29.93      
Jun 20 13:53 W 6 10 Mostly Cloudy FEW050 BKN180 BKN250 82 58     44%   82 29.94 29.95      
Jun 20 12:53 WNW 7 10 Mostly Cloudy FEW050 BKN160 BKN250 79 58     49%   79 29.95 29.96      
Jun 20 11:53 WNW 7 10 Mostly Cloudy FEW050 SCT110 BKN250 75 58     55%   75 29.96 29.97      
Jun 20 10:53 3 10 Mostly Cloudy FEW050 SCT110 BKN250 77 59     54%   77 29.96 29.97      
Jun 20 09:53 WNW 6 10 Mostly Cloudy SCT110 BKN250 75 58     55%   75 29.97 29.98      
Jun 20 08:53 W 3 10 Mostly Cloudy SCT110 BKN250 72 58     61%   72 29.98 29.99      
Jun 20 07:53 W 3 10 Mostly Cloudy SCT110 BKN250 66 57     73%     29.98 29.99      
Jun 20 06:53 Calm 10 Mostly Cloudy SCT120 BKN250 63 55     75%     29.97 29.98      
Jun 20 05:53 Calm 10 Mostly Cloudy SCT170 BKN250 63 55     75%     29.97 29.98      
Jun 20 04:53 Calm 10 Mostly Cloudy BKN180 61 54     78%     29.97 29.98      
Jun 20 03:53 Calm 10 Mostly Cloudy BKN180 63 55     75%     29.98 29.98      
Jun 20 02:53 Calm 10 Mostly Cloudy BKN150 66 55     68%     29.98 29.99      
Jun 20 01:53 WNW 3 10 Mostly Cloudy BKN150 68 56     65%     29.98 29.99      
Jun 20 00:53 Calm 10 Mostly Cloudy BKN160 70 57     63%     30 30.01      
Jun 19 23:53 Calm 10 Mostly Cloudy SCT140 BKN200 72 55     55%   71 30.01 30.02      
Jun 19 22:53 Calm 10 Clear   74 54     50%   73 30.01 30.02      
Jun 19 21:53 NNW 6 10 Partly Cloudy SCT140 SCT250 72 55     55%   71 30.01 30.02      
Jun 19 20:53 NW 3 10 Partly Cloudy FEW060 SCT140 SCT250 74 58     57%   74 30 30.01      
Jun 19 19:53 W 3 10 Partly Cloudy FEW060 SCT140 SCT250 80 55     42%   80 30 30      
Jun 19 18:53 WNW 5 10 Partly Cloudy FEW060 SCT140 SCT250 85 53     34%   83 29.99 30      
Jun 19 17:53 5 10 Partly Cloudy FEW060 FEW120 SCT250 84 51     32%   82 29.99 30      
Jun 19 16:53 3 10 Partly Cloudy FEW060 FEW120 SCT250 85 54     35%   83 30.01 30.02      
Jun 19 15:53 SW 7 10 Mostly Cloudy FEW050 SCT120 BKN250 82 54     38%   81 30.03 30.04      
Jun 19 14:53 SW 7 10 Partly Cloudy FEW050 FEW120 SCT250 80 54     41%   80 30.04 30.05      
Jun 19 13:53 SW 9 10 Partly Cloudy FEW050 FEW120 SCT250 76 54     47%   75 30.05 30.06      
Jun 19 12:53 SSW 9 10 Partly Cloudy FEW050 SCT200 76 54     47%   75 30.06 30.07      
Jun 19 11:53 W 7 10 Mostly Clear FEW200 72 53     51%   71 30.06 30.07      
Jun 19 10:53 5 10 Mostly Clear FEW200 70 54     57%     30.07 30.08      
Jun 19 09:53 SSW 7 10 Mostly Clear FEW200 67 54     63%     30.08 30.09      
Jun 19 08:53 S 7 10 Mostly Clear FEW200 64 53     67%     30.09 30.1      
Jun 19 07:53 WSW 7 10 Mostly Clear FEW007 FEW150 61 53     75%     30.08 30.1      
Jun 19 06:53 SW 5 10 Partly Cloudy SCT006 SCT150 58 53     84%     30.08 30.09      
Jun 19 05:53 SSW 6 10 Mostly Clear FEW006 FEW150 57 53     87%     30.07 30.08      
Jun 19 04:53 S 6 10 Clear CLR 57 53     87%     30.07 30.08      
Jun 19 03:53 S 8 10 Clear CLR 58 54     87%     30.06 30.06      
Jun 19 02:53 S 7 10 Clear   58 54     87%     30.05 30.06      
Jun 19 01:53 SSW 8 10 Partly Cloudy FEW150 SCT250 59 54     83%     30.05 30.06      
Jun 19 00:53 SSW 11 10 Mostly Cloudy BKN150 BKN250 61 54     78%     30.04 30.05      
Jun 18 23:53 SSW 13 10 Mostly Cloudy BKN150 BKN250 63 54     72%     30.04 30.05      
Jun 18 22:53 SSW 8 10 Partly Cloudy FEW150 SCT250 66 54     65%     30.02 30.03      
Jun 18 21:53 SSW 10 10 Mostly Cloudy SCT150 BKN250 68 55     63%     30 30.01      
Jun 18 20:53 S 10 10 Mostly Cloudy FEW120 BKN250 72 56     57%   72 29.98 29.99      
Jun 18 19:53 WSW 8 10 Mostly Cloudy FEW120 BKN250 79 57     47%   79 29.96 29.97      
Jun 18 18:53 WSW 13 10 Mostly Cloudy FEW050 BKN250 84 57     40%   83 29.94 29.95      
Jun 18 17:53 SSW 7 10 Mostly Cloudy FEW050 BKN250 86 53     32%   84 29.94 29.95      
Jun 18 16:53 SSW 9 10 Mostly Cloudy FEW050 BKN250 86 51     30%   84 29.95 29.96      
Jun 18 14:53 3 10 Partly Cloudy FEW050 SCT250 84 53     35%   83 29.95 29.96      
May 15 00:53 WSW 6 10 Mostly Clear FEW250 63 51     65%     29.89 29.9      
May 14 14:53 NW 8 10 Mostly Clear FEW050 FEW250 84 55     37%   83 29.9 29.91      
May 14 05:53 SSW 3 10 Mostly Clear FEW250 59 52     78%     29.96 29.97      
May 13 17:53 N 5 10 Mostly Clear FEW250 84 46     27%   82 29.9 29.91      
May 13 01:53 NE 7 10 Clear CLR 60 47     62%     29.97 29.98      
May 12 18:53 NNE 13 10 Mostly Clear FEW030 74 49     41%   73 29.98 29.99      
May 12 17:53 N 13 10 Mostly Clear FEW030 76 49     39%   75 29.99 30.01      
May 12 13:53 NNE 11 10 Clear   72 51     48%   71 30.07 30.08      
Jun 12 03:53 SW 7 10 Partly Cloudy SCT011 52 49     89%     30 30.02      
Jun 11 13:53 WSW 7 10 Partly Cloudy FEW040 SCT170 65 48     54%     30.02 30.04      
Jun 11 02:53 S 5 10 Mostly Cloudy SCT080 BKN180 53 49     86%     29.99 30.01      
Jun 10 15:53 WNW 10 10 Partly Cloudy SCT045 SCT200 66 41     40%     29.86 29.87      
Jun 07 10:53 W 7 10 Mostly Cloudy FEW120 BKN250 67 48     51%     29.78 29.79      
Jun 06 05:53 NNE 6 10 Partly Cloudy SCT140 SCT250 56 43     62%     30.01 30.03      
Jun 05 21:53 N 8 10 Mostly Cloudy BKN250 62 43     50%     30.06 30.07